Weather History for Winnipeg, MB

Change the Weather History Date:

Friday, December 14, 2012

  Actual Average Record
Temperature  
Mean Temperature 14 °F -  
Max Temperature 24 °F 18 °F 48 °F (1998)
Min Temperature 4 °F 2 °F -25 °F (2007)
Degree Days  
Heating Degree Days 51    
Moisture  
Dew Point 17 °F    
Average Humidity 93    
Maximum Humidity 100    
Minimum Humidity 76    
Precipitation  
Precipitation 0.08 in - - ()
Sea Level Pressure  
Sea Level Pressure 29.95 in    
Wind  
Wind Speed 12 mph ()    
Max Wind Speed 22 mph    
Max Gust Speed 29 mph    
Visibility 4.1 miles    
Events Fog , Snow    
Averages and records for this station are not official NWS values.
T = Trace of Precipitation, MM = Missing Value Source: Averaged Metar Reports

Daily Weather History Graph

Daily Weather History Graph

Search for Another Location

Airport:

Trip Planner

Search our weather history database for the weather conditions in past years. The results will help you decide how hot, cold, wet, or windy it might be!

Date:

Astronomy

Dec. 14, 2012 Rise Set
Actual Time 8:20 AM CST 4:27 PM CST
Civil Twilight 7:41 AM CST 5:05 PM CST
Nautical Twilight 7:00 AM CST 5:47 PM CST
Astronomical Twilight 6:21 AM CST 6:26 PM CST
Moon 9:20 AM CST (12/14) 6:28 PM CST (12/14)
Length of Visible Light 9h 24m
Length of Day
8h 07m
Waxing Crescent, 3% of the Moon is Illuminated
Dec 14
Waxing Crescent
Dec 19
First Quarter
Dec 28
Full
Jan 4
Last Quarter
Jan 11
New

Hourly Weather History & Observations

Time (CST) Temp. Windchill Dew Point Humidity Pressure Visibility Wind Dir Wind Speed Gust Speed Precip Events Conditions
12:00 AM 11 °F - 7 °F 76% 30.11 in 9 mi Calm Calm - -   Overcast
12:00 AM 10.4 °F -5.4 °F 6.8 °F 85% 30.11 in 12.0 mi South 13.8 mph - N/A Snow Light Snow
12:43 AM 12.2 °F -0.2 °F - N/A% - 15.0 mi SSE 9.2 mph - N/A   Overcast
1:00 AM 12.2 °F -1.0 °F 10.4 °F 92% 30.10 in 15.0 mi SSE 10.4 mph - N/A   Overcast
1:22 AM 12.2 °F -2.5 °F - N/A% - 10.0 mi SSE 12.7 mph - N/A Snow Light Snow
2:00 AM 14.0 °F -0.2 °F 12.2 °F 93% 30.08 in 12.0 mi SSE 12.7 mph - N/A Snow Light Snow
3:00 AM 15.8 °F 2.1 °F 12.2 °F 86% 30.06 in 10.0 mi SSE 12.7 mph - N/A Snow Light Snow
3:50 AM 15.8 °F 2.1 °F - N/A% - 5.0 mi SSE 12.7 mph - N/A Snow Light Snow
4:00 AM 17.6 °F 4.3 °F 15.8 °F 93% 30.04 in 5.0 mi South 12.7 mph - N/A Snow Light Snow
4:37 AM 17.6 °F 3.2 °F - N/A% - 5.0 mi South 15.0 mph - N/A   Overcast
5:00 AM 17.6 °F 4.3 °F 17.6 °F 100% 30.03 in 2.5 mi SSE 12.7 mph - N/A   Overcast
5:04 AM 17.6 °F 5.0 °F - N/A% - 2.0 mi SSE 11.5 mph - N/A   Overcast
6:00 AM 19 °F - 18 °F 94% 30.01 in 1 mi Calm Calm - -   Overcast
6:00 AM 19.4 °F 6.6 °F 17.6 °F 93% 30.01 in 2.0 mi SSE 12.7 mph - N/A   Overcast
6:14 AM 19.4 °F 6.0 °F - N/A% - 1.5 mi SSE 13.8 mph - N/A   Overcast
6:35 AM 19.4 °F 6.0 °F - N/A% - 2.5 mi South 13.8 mph 19.6 mph N/A   Overcast
6:51 AM 19.4 °F 5.0 °F - N/A% - 3.0 mi South 16.1 mph - N/A   Overcast
7:00 AM 19.4 °F 4.1 °F 19.4 °F 100% 30.01 in 4.0 mi South 18.4 mph - N/A   Overcast
7:23 AM 19.4 °F 6.0 °F - N/A% - 2.5 mi South 13.8 mph - N/A   Overcast
7:39 AM 19.4 °F 6.0 °F - N/A% - 1.0 mi South 13.8 mph - N/A   Overcast
8:00 AM 19.4 °F 7.2 °F 19.4 °F 100% 30.00 in 0.8 mi South 11.5 mph - N/A   Overcast
8:25 AM 21.2 °F 8.3 °F - N/A% - 1.5 mi South 13.8 mph - N/A   Overcast
8:50 AM 21.2 °F 7.8 °F - N/A% - 3.0 mi South 15.0 mph - N/A   Overcast
9:00 AM 21.2 °F 8.9 °F 21.2 °F 100% 29.99 in 3.0 mi South 12.7 mph 19.6 mph N/A   Overcast
10:00 AM 21.2 °F 6.8 °F 21.2 °F 100% 29.98 in 5.0 mi South 17.3 mph 25.3 mph N/A   Overcast
10:52 AM 23.0 °F 8.7 °F - N/A% - 3.0 mi South 18.4 mph 25.3 mph N/A   Overcast
11:00 AM 23.0 °F 10.1 °F 21.2 °F 93% 29.98 in 3.0 mi South 15.0 mph 21.9 mph N/A   Overcast
11:15 AM 23.0 °F 8.3 °F - N/A% - 3.0 mi South 19.6 mph 25.3 mph N/A Snow Light Snow
12:00 PM 23 °F - 22 °F 92% 29.95 in 3 mi Calm Calm - -   Overcast
12:00 PM 23.0 °F 8.3 °F 21.2 °F 93% 29.95 in 4.0 mi South 19.6 mph 28.8 mph N/A Snow Light Snow
1:00 PM 24.8 °F 10.0 °F 23.0 °F 93% 29.92 in 4.0 mi South 21.9 mph - N/A Snow Low Drifting Snow
1:35 PM 23.0 °F 10.1 °F - N/A% - 5.0 mi South 15.0 mph - N/A   Overcast
2:00 PM 23.0 °F 10.1 °F 21.2 °F 93% 29.88 in 6.0 mi South 15.0 mph - N/A   Mostly Cloudy
3:00 PM 23.0 °F 10.1 °F 21.2 °F 93% 29.86 in 6.0 mi South 15.0 mph - N/A   Mostly Cloudy
4:00 PM 21.2 °F 9.5 °F 19.4 °F 93% 29.85 in 6.0 mi South 11.5 mph - N/A   Partly Cloudy
5:00 PM 19.4 °F 8.6 °F 17.6 °F 93% 29.85 in 5.0 mi South 9.2 mph - N/A   Clear
6:00 PM 18 °F - 16 °F 90% 29.84 in 5 mi Calm Calm - -  
6:00 PM 17.6 °F 6.4 °F 15.8 °F 93% 29.84 in 6.0 mi South 9.2 mph - N/A   Clear
7:00 PM 17.6 °F 8.2 °F 15.8 °F 93% 29.83 in 3.0 mi South 6.9 mph - N/A   Clear
7:50 PM 17.6 °F 5.7 °F - N/A% - 3.0 mi SW 10.4 mph - N/A   Mostly Cloudy
8:00 PM 17.6 °F 5.7 °F 15.8 °F 93% 29.83 in 1.5 mi SSW 10.4 mph - N/A   Overcast
8:03 PM 17.6 °F 5.0 °F - N/A% - 0.8 mi SSW 11.5 mph - N/A   Mist
8:12 PM 17.6 °F 5.7 °F - N/A% - 0.4 mi SSW 10.4 mph - N/A Fog Light Freezing Fog
8:21 PM 17.6 °F 6.4 °F - N/A% - 0.1 mi SSW 9.2 mph - N/A Fog Light Freezing Fog
8:33 PM 17.6 °F 5.0 °F - N/A% - 0.2 mi SSW 11.5 mph - N/A Fog Light Freezing Fog
9:00 PM 17.6 °F 6.4 °F 15.8 °F 93% 29.82 in 0.2 mi South 9.2 mph - N/A Fog Light Freezing Fog
10:00 PM 17.6 °F 5.7 °F 17.6 °F 100% 29.81 in 0.8 mi SSW 10.4 mph - N/A   Mist
10:22 PM 17.6 °F 6.4 °F - N/A% - 0.4 mi South 9.2 mph - N/A Fog Light Freezing Fog
10:49 PM 17.6 °F 5.7 °F - N/A% - 0.8 mi South 10.4 mph - N/A   Mist
11:00 PM 15.8 °F 2.7 °F 15.8 °F 100% 29.81 in 0.8 mi South 11.5 mph - N/A   Mist